Time,TemperatureF,DewpointF,PressureIn,WindDirection,WindDirectionDegrees,WindSpeedMPH,WindSpeedGustMPH,Humidity,HourlyPrecipIn,Conditions,Clouds,dailyrainin,SoftwareType,DateUTC
2014-07-23 00:01:00,71.8,63.1,29.94,North,0,7.8,8.5,74,0.00,,,0.00,WUHU216HW,2014-07-23 05:01:00,
2014-07-23 00:06:00,71.5,62.7,29.95,NNE,23,5.1,8.5,74,0.00,,,0.00,WUHU216HW,2014-07-23 05:06:00,
2014-07-23 00:11:00,71.3,62.9,29.95,NNE,23,1.8,8.5,75,0.00,,,0.00,WUHU216HW,2014-07-23 05:11:00,
2014-07-23 00:16:00,70.9,62.6,29.95,NNE,23,4.3,8.5,75,0.00,,,0.00,WUHU216HW,2014-07-23 05:16:00,
2014-07-23 00:21:00,70.6,62.6,29.95,North,0,3.4,8.9,76,0.00,,,0.00,WUHU216HW,2014-07-23 05:21:00,
2014-07-23 00:26:00,70.6,62.6,29.96,NNE,23,4.5,8.9,76,0.00,,,0.00,WUHU216HW,2014-07-23 05:26:00,
2014-07-23 00:31:00,70.4,62.4,29.96,NNW,338,5.8,9.8,76,0.00,,,0.00,WUHU216HW,2014-07-23 05:31:00,
2014-07-23 00:36:00,70.2,62.6,29.97,North,0,6.9,9.8,77,0.00,,,0.00,WUHU216HW,2014-07-23 05:36:00,
2014-07-23 00:41:00,69.8,62.2,29.97,NNE,23,11.9,11.9,77,0.00,,,0.00,WUHU216HW,2014-07-23 05:41:00,
2014-07-23 00:46:00,69.5,62.3,29.97,NNE,23,7.8,11.9,78,0.00,,,0.00,WUHU216HW,2014-07-23 05:46:00,
2014-07-23 00:51:00,69.5,62.3,29.97,NNE,23,4.5,14.3,78,0.00,,,0.00,WUHU216HW,2014-07-23 05:51:00,
2014-07-23 00:56:00,69.1,61.6,29.98,NNE,23,7.6,14.3,77,0.00,,,0.00,WUHU216HW,2014-07-23 05:56:00,
2014-07-23 01:01:00,68.9,61.4,29.98,NE,45,9.2,12.1,77,0.00,,,0.00,WUHU216HW,2014-07-23 06:01:00,
2014-07-23 01:06:00,68.8,60.5,29.98,NNE,23,9.2,11.4,75,0.00,,,0.00,WUHU216HW,2014-07-23 06:06:00,
2014-07-23 01:11:00,68.8,60.5,29.98,North,0,11.6,11.6,75,0.00,,,0.00,WUHU216HW,2014-07-23 06:11:00,
2014-07-23 01:16:00,68.4,60.2,29.98,NNE,23,8.1,11.6,75,0.00,,,0.00,WUHU216HW,2014-07-23 06:16:00,
2014-07-23 01:21:00,68.2,60.4,29.98,NNE,23,9.8,13.4,76,0.00,,,0.00,WUHU216HW,2014-07-23 06:21:00,
2014-07-23 01:26:00,68.0,60.2,29.99,NNE,23,3.6,13.4,76,0.00,,,0.00,WUHU216HW,2014-07-23 06:26:00,
2014-07-23 01:31:00,67.7,59.9,29.99,NNE,23,6.3,13.4,76,0.00,,,0.00,WUHU216HW,2014-07-23 06:31:00,
2014-07-23 01:36:00,67.3,59.5,29.99,NE,45,7.6,11.0,76,0.00,,,0.00,WUHU216HW,2014-07-23 06:36:00,
2014-07-23 01:41:00,67.1,59.3,29.99,NNE,23,6.3,11.0,76,0.00,,,0.00,WUHU216HW,2014-07-23 06:41:00,
2014-07-23 01:46:00,67.0,59.1,30.00,NNE,23,2.0,9.2,76,0.00,,,0.00,WUHU216HW,2014-07-23 06:46:00,
2014-07-23 01:51:00,66.6,59.1,30.00,NNE,23,6.9,9.2,77,0.00,,,0.00,WUHU216HW,2014-07-23 06:51:00,
2014-07-23 01:56:00,66.4,59.0,30.00,NNE,23,4.7,7.2,77,0.00,,,0.00,WUHU216HW,2014-07-23 06:56:00,
2014-07-23 02:01:00,66.2,58.8,30.00,North,0,5.1,8.5,77,0.00,,,0.00,WUHU216HW,2014-07-23 07:01:00,
2014-07-23 02:06:00,66.1,58.6,30.00,NNE,23,6.3,8.5,77,0.00,,,0.00,WUHU216HW,2014-07-23 07:06:00,
2014-07-23 02:11:00,65.7,58.3,30.00,North,0,5.1,7.6,77,0.00,,,0.00,WUHU216HW,2014-07-23 07:11:00,
2014-07-23 02:16:00,65.5,58.5,30.00,North,0,6.5,9.4,78,0.00,,,0.00,WUHU216HW,2014-07-23 07:16:00,
2014-07-23 02:21:00,65.3,58.3,30.00,East,90,4.0,9.4,78,0.00,,,0.00,WUHU216HW,2014-07-23 07:21:00,
2014-07-23 02:26:00,65.2,58.2,30.00,NNE,23,4.0,7.2,78,0.00,,,0.00,WUHU216HW,2014-07-23 07:26:00,
2014-07-23 02:31:00,65.0,58.3,30.00,North,0,6.5,7.2,79,0.00,,,0.00,WUHU216HW,2014-07-23 07:31:00,
2014-07-23 02:36:00,64.8,58.2,30.00,North,0,8.7,8.7,79,0.00,,,0.00,WUHU216HW,2014-07-23 07:36:00,
2014-07-23 02:41:00,64.4,57.8,30.01,NNE,23,6.0,8.7,79,0.00,,,0.00,WUHU216HW,2014-07-23 07:41:00,
2014-07-23 02:46:00,64.3,58.0,30.00,NNE,23,2.9,8.7,80,0.00,,,0.00,WUHU216HW,2014-07-23 07:46:00,
2014-07-23 02:51:00,64.1,57.4,30.00,North,0,1.3,6.3,79,0.00,,,0.00,WUHU216HW,2014-07-23 07:51:00,
2014-07-23 02:56:00,63.9,57.6,30.01,North,0,4.3,7.2,80,0.00,,,0.00,WUHU216HW,2014-07-23 07:56:00,
2014-07-23 03:01:00,63.9,57.2,30.01,NNE,23,1.1,8.5,79,0.00,,,0.00,WUHU216HW,2014-07-23 08:01:00,
2014-07-23 03:06:00,63.7,57.4,30.01,NNE,23,4.9,8.5,80,0.00,,,0.00,WUHU216HW,2014-07-23 08:06:00,
2014-07-23 03:10:00,63.5,57.2,30.01,NNE,23,1.1,6.3,80,0.00,,,0.00,WUHU216HW,2014-07-23 08:10:00,
2014-07-23 03:15:00,63.2,56.9,30.01,NNE,23,3.4,6.0,80,0.00,,,0.00,WUHU216HW,2014-07-23 08:15:00,
2014-07-23 03:20:00,63.0,57.1,30.01,North,0,2.2,4.7,81,0.00,,,0.00,WUHU216HW,2014-07-23 08:20:00,
2014-07-23 03:25:00,62.8,56.9,30.01,North,0,3.1,6.0,81,0.00,,,0.00,WUHU216HW,2014-07-23 08:25:00,
2014-07-23 03:30:00,62.6,57.1,30.01,NNE,23,3.6,6.0,82,0.00,,,0.00,WUHU216HW,2014-07-23 08:30:00,
2014-07-23 03:35:00,62.5,56.9,30.01,NNE,23,3.4,5.8,82,0.00,,,0.00,WUHU216HW,2014-07-23 08:35:00,
2014-07-23 03:40:00,62.3,56.7,30.01,North,0,6.9,6.9,82,0.00,,,0.00,WUHU216HW,2014-07-23 08:40:00,
2014-07-23 03:45:00,61.9,56.3,30.01,NNE,23,6.0,8.5,82,0.00,,,0.00,WUHU216HW,2014-07-23 08:45:00,
2014-07-23 03:50:00,61.7,56.5,30.01,NNE,23,3.1,8.5,83,0.00,,,0.00,WUHU216HW,2014-07-23 08:50:00,
2014-07-23 03:55:00,61.7,56.5,30.01,NNE,23,3.1,6.7,83,0.00,,,0.00,WUHU216HW,2014-07-23 08:55:00,
2014-07-23 04:00:00,61.6,56.3,30.01,North,0,4.7,6.7,83,0.00,,,0.00,WUHU216HW,2014-07-23 09:00:00,
2014-07-23 04:05:00,61.4,56.2,30.01,NNE,23,2.5,7.4,83,0.00,,,0.00,WUHU216HW,2014-07-23 09:05:00,
2014-07-23 04:10:00,61.2,56.1,30.02,NNE,23,4.3,7.4,83,0.00,,,0.00,WUHU216HW,2014-07-23 09:10:00,
2014-07-23 04:15:00,61.0,55.9,30.01,NNE,23,1.1,4.9,83,0.00,,,0.00,WUHU216HW,2014-07-23 09:15:00,
2014-07-23 04:20:00,61.0,56.2,30.02,NNE,23,3.8,4.9,84,0.00,,,0.00,WUHU216HW,2014-07-23 09:20:00,
2014-07-23 04:25:00,60.8,56.0,30.02,NNW,338,1.6,4.9,84,0.00,,,0.00,WUHU216HW,2014-07-23 09:25:00,
2014-07-23 04:30:00,60.8,56.0,30.02,NNE,23,1.6,4.9,84,0.00,,,0.00,WUHU216HW,2014-07-23 09:30:00,
2014-07-23 04:35:00,60.7,56.2,30.02,NNE,23,3.6,5.4,85,0.00,,,0.00,WUHU216HW,2014-07-23 09:35:00,
2014-07-23 04:40:00,60.5,55.6,30.02,NNE,23,3.1,5.4,84,0.00,,,0.00,WUHU216HW,2014-07-23 09:40:00,
2014-07-23 04:45:00,60.3,55.8,30.02,NNE,23,4.7,5.4,85,0.00,,,0.00,WUHU216HW,2014-07-23 09:45:00,
2014-07-23 04:50:00,60.3,55.8,30.03,NNE,23,4.7,5.4,85,0.00,,,0.00,WUHU216HW,2014-07-23 09:50:00,
2014-07-23 04:55:00,60.1,55.6,30.03,North,0,4.7,6.5,85,0.00,,,0.00,WUHU216HW,2014-07-23 09:55:00,
2014-07-23 05:00:00,60.1,55.6,30.03,North,0,3.1,6.5,85,0.00,,,0.00,WUHU216HW,2014-07-23 10:00:00,
2014-07-23 05:05:00,60.1,55.6,30.04,NNW,338,3.4,5.4,85,0.00,,,0.00,WUHU216HW,2014-07-23 10:05:00,
2014-07-23 05:10:00,59.8,55.3,30.03,North,0,3.4,5.6,85,0.00,,,0.00,WUHU216HW,2014-07-23 10:10:00,
2014-07-23 05:15:00,59.8,55.3,30.03,North,0,2.9,5.8,85,0.00,,,0.00,WUHU216HW,2014-07-23 10:15:00,
2014-07-23 05:20:00,59.6,55.1,30.03,NNE,23,2.9,5.8,85,0.00,,,0.00,WUHU216HW,2014-07-23 10:20:00,
2014-07-23 05:25:00,59.4,54.9,30.03,North,0,2.7,5.1,85,0.00,,,0.00,WUHU216HW,2014-07-23 10:25:00,
2014-07-23 05:30:00,59.2,55.1,30.04,NW,315,3.8,4.0,86,0.00,,,0.00,WUHU216HW,2014-07-23 10:30:00,
2014-07-23 05:35:00,59.0,54.9,30.03,North,0,4.3,4.3,86,0.00,,,0.00,WUHU216HW,2014-07-23 10:35:00,
2014-07-23 05:40:00,59.0,54.9,30.03,North,0,2.5,4.3,86,0.00,,,0.00,WUHU216HW,2014-07-23 10:40:00,
2014-07-23 05:45:00,58.9,54.7,30.04,NNE,23,1.6,4.3,86,0.00,,,0.00,WUHU216HW,2014-07-23 10:45:00,
2014-07-23 05:50:00,58.7,54.6,30.04,NNE,23,0.4,2.9,86,0.00,,,0.00,WUHU216HW,2014-07-23 10:50:00,
2014-07-23 05:55:00,58.7,54.2,30.04,NNW,338,0.0,2.5,85,0.00,,,0.00,WUHU216HW,2014-07-23 10:55:00,
2014-07-23 06:00:00,58.5,54.4,30.04,NNE,23,2.7,2.9,86,0.00,,,0.00,WUHU216HW,2014-07-23 11:00:00,
2014-07-23 06:05:00,58.7,54.8,30.04,North,0,1.1,2.9,87,0.00,,,0.00,WUHU216HW,2014-07-23 11:05:00,
2014-07-23 06:10:00,58.9,55.0,30.05,NNE,23,1.8,2.9,87,0.00,,,0.00,WUHU216HW,2014-07-23 11:10:00,
2014-07-23 06:15:00,60.1,55.6,30.05,North,0,3.4,4.3,85,0.00,,,0.00,WUHU216HW,2014-07-23 11:15:00,
2014-07-23 06:20:00,61.6,55.7,30.05,NNE,23,6.7,6.7,81,0.00,,,0.00,WUHU216HW,2014-07-23 11:20:00,
2014-07-23 06:25:00,62.6,56.0,30.05,North,0,3.4,12.3,79,0.00,,,0.00,WUHU216HW,2014-07-23 11:25:00,
2014-07-23 06:30:00,63.5,56.5,30.06,North,0,8.3,12.3,78,0.00,,,0.00,WUHU216HW,2014-07-23 11:30:00,
2014-07-23 06:35:00,64.3,56.5,30.06,NNE,23,5.6,8.5,76,0.00,,,0.00,WUHU216HW,2014-07-23 11:35:00,
2014-07-23 06:40:00,64.8,57.1,30.06,NNE,23,2.9,10.3,76,0.00,,,0.00,WUHU216HW,2014-07-23 11:40:00,
2014-07-23 06:45:00,65.3,56.8,30.07,NNE,23,1.8,15.9,74,0.00,,,0.00,WUHU216HW,2014-07-23 11:45:00,
2014-07-23 06:50:00,65.7,57.2,30.07,NE,45,8.5,15.9,74,0.00,,,0.00,WUHU216HW,2014-07-23 11:50:00,
2014-07-23 06:55:00,66.2,56.9,30.06,NNE,23,7.8,13.6,72,0.00,,,0.00,WUHU216HW,2014-07-23 11:55:00,
2014-07-23 07:00:00,67.3,57.6,30.06,NE,45,3.6,13.6,71,0.00,,,0.00,WUHU216HW,2014-07-23 12:00:00,
2014-07-23 07:05:00,68.0,57.5,30.06,NNE,23,13.2,13.2,69,0.00,,,0.00,WUHU216HW,2014-07-23 12:05:00,
2014-07-23 07:10:00,68.2,57.2,30.07,NNE,23,10.5,13.2,68,0.00,,,0.00,WUHU216HW,2014-07-23 12:10:00,
2014-07-23 07:15:00,67.7,57.6,30.07,NNE,23,13.0,15.4,70,0.00,,,0.00,WUHU216HW,2014-07-23 12:15:00,
2014-07-23 07:20:00,67.1,57.1,30.06,NNE,23,6.3,28.2,70,0.00,,,0.00,WUHU216HW,2014-07-23 12:20:00,
2014-07-23 07:25:00,66.2,56.9,30.06,NNE,23,3.4,28.2,72,0.00,,,0.00,WUHU216HW,2014-07-23 12:25:00,
2014-07-23 07:30:00,65.5,57.0,30.07,NNE,23,5.4,19.7,74,0.00,,,0.00,WUHU216HW,2014-07-23 12:30:00,
2014-07-23 07:35:00,65.2,57.1,30.07,North,0,5.6,14.5,75,0.00,,,0.00,WUHU216HW,2014-07-23 12:35:00,
2014-07-23 07:40:00,65.2,57.4,30.07,North,0,3.1,12.8,76,0.00,,,0.00,WUHU216HW,2014-07-23 12:40:00,
2014-07-23 07:45:00,65.2,57.1,30.07,NNE,23,7.4,12.8,75,0.00,,,0.00,WUHU216HW,2014-07-23 12:45:00,
2014-07-23 07:50:00,65.3,57.6,30.07,NE,45,1.3,12.8,76,0.00,,,0.00,WUHU216HW,2014-07-23 12:50:00,
2014-07-23 07:55:00,65.9,57.7,30.07,NE,45,2.9,7.6,75,0.00,,,0.00,WUHU216HW,2014-07-23 12:55:00,
2014-07-23 08:00:00,65.9,57.3,30.07,NNE,23,2.2,7.2,74,0.00,,,0.00,WUHU216HW,2014-07-23 13:00:00,
2014-07-23 08:05:00,65.9,57.3,30.07,NE,45,3.1,7.2,74,0.00,,,0.00,WUHU216HW,2014-07-23 13:05:00,
2014-07-23 08:10:00,65.5,57.0,30.07,North,0,7.8,9.2,74,0.00,,,0.00,WUHU216HW,2014-07-23 13:10:00,
2014-07-23 08:15:00,65.9,57.3,30.08,NNE,23,7.6,9.2,74,0.00,,,0.00,WUHU216HW,2014-07-23 13:15:00,